カタログに戻る

CZ-6A DEB

運用中SSO
NORAD 56658·DEBRIS·🇨🇳 China

打ち上げ Nov 11, 2022 から Taiyuan Satellite Launch Center

Loading…

次のパス (今後24時間)

TLE

経年Source: Space-Track

元期: Sep 9, 2026, 16:57 UTC

1 56658U 22151AGJ 26252.70648512  .00000141  00000-0  13287-3 0  9991
2 56658  98.8789 208.3840 0126460 198.3202 161.3382 13.92757379171691

AllMySatでCZ-6A DEBをリアルタイム追跡

Download on the App Store